Regional Weather Roundup
Issued by NWS Kansas City/Pleasant Hill, MO

Home | Current Version | Previous Version | Text Only | Print | Product List | Glossary On
Versions: 1 2 3 4 5 6 7 8 9 10 11 12 13 14 15 16 17 18 19 20 21 22 23 24 25 26 27 28 29 30 31 32 33 34 35 36 37 38 39 40 41 42 43 44 45 46 47 48 49 50
000
ASUS43 KEAX 181511
RWREAX

WEATHER ROUNDUP FOR EASTERN KANSAS AND NORTHWEST MISSOURI
NATIONAL WEATHER SERVICE KANSAS CITY/PLEASANT HILL MO
1000 AM CDT THU SEP 18 2014

KSZ040-057-103>105-MOZ028-029-037-043-181600-
...KANSAS CITY METROPOLITAN AREA...

CITY           SKY/WX    TMP DP  RH WIND       PRES   REMARKS
K.C. INTL      CLOUDY    61  59  93 E13       30.04R FOG
K.C. DOWNTOWN  CLOUDY    63  59  87 E9        30.02R
LEES SUMMIT    CLOUDY    62  60  93 E9        30.04R
OLATHE - IXD   CLOUDY    62  62 100 E8        30.03R FOG
OLATHE - OJC   CLOUDY    61  61 100 E8        30.02R FOG
LAWRENCE       CLOUDY    63  60  90 E9        30.03R FOG

$$

MOZ001>008-011>017-020>025-030>033-038>040-044>046-053-054-181600-
...NORTHERN AND CENTRAL MISSOURI...

CITY           SKY/WX    TMP DP  RH WIND       PRES   REMARKS
ST. JOSEPH     CLOUDY    60  59  96 E10       30.04R FOG
MOSBY          CLOUDY    61  59  94 E5        30.05R
WHITEMAN AFB   CLOUDY    62  60  94 E7        30.03S
CLINTON        FOG       64  64 100 E8        30.02S VSB 3/4
SEDALIA        CLOUDY    61  60  97 E8        30.05R FOG
WARSAW         NOT AVBL
MARSHALL       CLOUDY    63  63 100 E9        30.07R FOG
CHILLICOTHE      N/A     61  55  81 E9        30.08S
KIRKSVILLE     CLOUDY    59  56  89 E7        30.10S FOG

$$

MOZ041-047>049-056>058-063>065-088>090-097-181600-
...EASTERN AND SOUTHERN MISSOURI...

CITY           SKY/WX    TMP DP  RH WIND       PRES   REMARKS
ST. LOUIS INTL CLOUDY    64  56  75 E9        30.09R
SPIRIT OF STL  CLOUDY    64  57  78 SE6       30.07R
COLUMBIA       FOG       60  60 100 E6        30.06S VSB 1
JEFFERSON CITY CLOUDY    62  59  90 E6        30.06R FOG
MEXICO         CLOUDY   N/A N/A N/A E6        30.08R
ROLLA          CLOUDY    60  58  92 E8        30.05R
LEBANON        CLOUDY    63  61  94 NE9       30.04S
OSAGE BEACH    CLOUDY    63  59  88 E7        30.04S
SPRINGFIELD    CLOUDY    67  64  90 NE14      29.98F
BRANSON        LGT RAIN  64  64 100 NE6       29.98F
NEVADA         CLOUDY    66  64  94 CALM      30.01R
JOPLIN         CLOUDY    68  63  84 N6        29.97R
WEST PLAINS    CLOUDY    60  59  96 E7        30.05S FOG

$$

IAZ060-094-KSZ022-034>040-054-083-096-NEZ052-066-093-181600-
...KANSAS...SOUTHEAST NEBRASKA AND IOWA...

CITY           SKY/WX    TMP DP  RH WIND       PRES   REMARKS
TOPEKA         CLOUDY    66  63  90 E9        30.01R FOG
MANHATTAN      CLOUDY    68  64  87 E7        29.99R
EMPORIA        CLOUDY    64  64 100 CALM      29.98R THUNDER
CHANUTE        CLOUDY    66  63  90 CALM      29.99F
WICHITA        PTSUNNY   71  60  68 S17       29.98R
OMAHA          PTSUNNY   65  59  81 SE12      30.04S
LINCOLN        PTSUNNY   67  61  81 SE12      30.03S
FALLS CITY     CLOUDY    62  61  96 E8        30.02R FOG
LAMONI         PTSUNNY   57  55  93 E8        30.08R
DES MOINES     FOG       59  58  96 E7        30.10R VSB 1/4

$$



USA.gov is the U.S. government's official web portal to all federal, state and local government web resources and services.